Weather History for Watonga, OK

Change the Weather History Date:

Thursday, February 7, 2013

  Actual Average Record
Temperature  
Mean Temperature 48 °F -  
Max Temperature 59 °F 48 °F 74 °F (1969)
Min Temperature 35 °F 24 °F 1 °F (2003)
Degree Days  
Heating Degree Days 17    
Moisture  
Dew Point 48 °F    
Average Humidity 83    
Maximum Humidity 100    
Minimum Humidity 48    
Precipitation  
Precipitation 0.00 in - - ()
Sea Level Pressure  
Sea Level Pressure 29.97 in    
Wind  
Wind Speed 16 mph (North)    
Max Wind Speed 28 mph    
Max Gust Speed 38 mph    
Visibility 9 miles    
Events Fog , Rain    
Averages and records for this station are not official NWS values.
T = Trace of Precipitation, MM = Missing Value Source: NWS Daily Summary

Daily Weather History Graph

Daily Weather History Graph

Search for Another Location

Airport:

Trip Planner

Search our weather history database for the weather conditions in past years. The results will help you decide how hot, cold, wet, or windy it might be!

Date:

Astronomy

Feb. 07, 2013 Rise Set
Actual Time 7:28 AM CST 6:07 PM CST
Civil Twilight 7:02 AM CST 6:34 PM CST
Nautical Twilight 6:31 AM CST 7:04 PM CST
Astronomical Twilight 6:01 AM CST 7:34 PM CST
Moon 5:06 AM CST (2/7) 3:36 PM CST (2/7)
Length of Visible Light 11h 31m
Length of Day
10h 38m
Waning Crescent, 9% of the Moon is Illuminated
Feb 7
Waning Crescent
Feb 10
New
Feb 17
First Quarter
Feb 25
Full
Mar 4
Last Quarter

Hourly Weather History & Observations

Time (CST) Temp. Windchill Dew Point Humidity Pressure Visibility Wind Dir Wind Speed Gust Speed Precip Events Conditions
12:15 AM 58.1 °F - 58.1 °F 100% 29.82 in 10.0 mi South 20.7 mph 27.6 mph N/A   Overcast
12:35 AM 58.3 °F - 58.3 °F 100% 29.82 in 10.0 mi South 19.6 mph 27.6 mph N/A   Overcast
12:55 AM 58.3 °F - 58.3 °F 100% 29.81 in 10.0 mi South 16.1 mph 26.5 mph N/A   Overcast
1:15 AM 58.3 °F - 58.3 °F 100% 29.81 in 10.0 mi South 17.3 mph 25.3 mph N/A   Overcast
1:35 AM 58.5 °F - 58.5 °F 100% 29.80 in 10.0 mi South 16.1 mph 26.5 mph N/A   Overcast
1:55 AM 58.6 °F - 58.6 °F 100% 29.80 in 10.0 mi South 16.1 mph 25.3 mph N/A   Overcast
2:15 AM 59.0 °F - 59.0 °F 100% 29.79 in 10.0 mi South 18.4 mph 21.9 mph N/A   Overcast
2:35 AM 59.0 °F - 59.0 °F 100% 29.79 in 10.0 mi South 18.4 mph 24.2 mph N/A   Overcast
2:55 AM 59.0 °F - 59.0 °F 100% 29.78 in 10.0 mi South 17.3 mph 24.2 mph N/A   Overcast
3:15 AM 59.0 °F - 59.0 °F 100% 29.78 in 10.0 mi South 18.4 mph 26.5 mph N/A   Overcast
3:35 AM 59.0 °F - 59.0 °F 100% 29.78 in 7.0 mi South 19.6 mph 26.5 mph N/A   Overcast
3:55 AM 59.0 °F - 59.0 °F 100% 29.78 in 10.0 mi South 15.0 mph 24.2 mph N/A   Overcast
4:15 AM 59.2 °F - 59.2 °F 100% 29.78 in 7.0 mi South 16.1 mph 20.7 mph N/A   Overcast
4:35 AM 59.2 °F - 59.2 °F 100% 29.77 in 10.0 mi South 16.1 mph 23.0 mph N/A   Overcast
4:55 AM 59.0 °F - 59.0 °F 100% 29.77 in 10.0 mi South 13.8 mph 18.4 mph N/A   Overcast
5:15 AM 58.8 °F - 58.8 °F 100% 29.77 in 10.0 mi South 11.5 mph - N/A   Mostly Cloudy
5:35 AM 58.5 °F - 58.5 °F 100% 29.77 in 10.0 mi South 11.5 mph - N/A   Scattered Clouds
6:15 AM 57.6 °F - 57.6 °F 100% 29.77 in 7.0 mi SSE 6.9 mph - N/A   Clear
6:35 AM 57.4 °F - 57.4 °F 100% 29.78 in 7.0 mi South 5.8 mph - N/A   Scattered Clouds
6:55 AM 58.1 °F - 58.1 °F 100% 29.83 in 7.0 mi NNW 10.4 mph 18.4 mph N/A   Mostly Cloudy
7:15 AM 59.2 °F - 59.2 °F 100% 29.83 in 10.0 mi WSW 5.8 mph 11.5 mph N/A   Overcast
7:35 AM 59.2 °F - 59.2 °F 100% 29.84 in 10.0 mi Calm Calm - N/A Rain Light Rain
8:15 AM 56.8 °F - 56.8 °F 100% 29.85 in 7.0 mi East 3.5 mph - N/A   Overcast
8:35 AM 56.7 °F - 56.7 °F 100% 29.86 in 5.0 mi ENE 4.6 mph - N/A   Overcast
8:55 AM 56.7 °F - 56.7 °F 100% 29.87 in 3.0 mi NE 6.9 mph - N/A   Scattered Clouds
9:15 AM 56.5 °F - 56.5 °F 100% 29.87 in 0.2 mi NE 8.1 mph - N/A Fog Fog
9:35 AM 56.7 °F - 56.7 °F 100% 29.88 in 0.2 mi NE 5.8 mph - N/A Fog Fog
9:55 AM 54.7 °F - 54.7 °F 100% 29.90 in 4.0 mi North 25.3 mph 32.2 mph N/A Rain Rain
10:15 AM 53.6 °F - 53.6 °F 100% 29.91 in 10.0 mi North 24.2 mph 34.5 mph N/A   Overcast
10:35 AM 53.6 °F - 53.6 °F 100% 29.94 in 10.0 mi North 24.2 mph 29.9 mph N/A   Overcast
10:55 AM 54.5 °F - 54.5 °F 100% 29.95 in 10.0 mi North 25.3 mph 31.1 mph N/A   Overcast
11:15 AM 55.2 °F - 54.0 °F 96% 29.96 in 10.0 mi North 27.6 mph 36.8 mph N/A   Overcast
11:35 AM 56.3 °F - 51.6 °F 84% 29.97 in 10.0 mi North 26.5 mph 35.7 mph N/A   Mostly Cloudy
12:15 PM 57.2 °F - 49.6 °F 76% 29.96 in 10.0 mi North 27.6 mph 35.7 mph N/A   Mostly Cloudy
12:35 PM 55.9 °F - 48.4 °F 76% 29.96 in 10.0 mi North 27.6 mph 38.0 mph N/A   Overcast
12:55 PM 54.0 °F - 48.9 °F 83% 29.97 in 10.0 mi North 27.6 mph 31.1 mph N/A   Mostly Cloudy
1:15 PM 53.2 °F - 47.3 °F 80% 29.98 in 10.0 mi North 21.9 mph - N/A   Overcast
1:35 PM 52.3 °F - 46.8 °F 81% 29.99 in 10.0 mi North 23.0 mph 26.5 mph N/A   Overcast
1:55 PM 52.0 °F - 46.6 °F 82% 30.00 in 10.0 mi North 20.7 mph 27.6 mph N/A   Overcast
2:15 PM 52.3 °F - 45.9 °F 79% 30.01 in 10.0 mi North 23.0 mph 28.8 mph N/A   Overcast
2:35 PM 52.0 °F - 44.6 °F 76% 30.02 in 10.0 mi North 20.7 mph 24.2 mph N/A   Overcast
2:55 PM 51.6 °F - 44.1 °F 75% 30.02 in 10.0 mi North 21.9 mph 26.5 mph N/A Rain Light Rain
3:15 PM 54.9 °F - 43.2 °F 65% 30.02 in 10.0 mi North 19.6 mph 25.3 mph N/A   Overcast
3:35 PM 55.8 °F - 41.2 °F 58% 30.02 in 10.0 mi North 19.6 mph 25.3 mph N/A   Mostly Cloudy
3:55 PM 54.1 °F - 38.5 °F 55% 30.04 in 10.0 mi North 18.4 mph 28.8 mph N/A   Mostly Cloudy
4:15 PM 54.7 °F - 37.2 °F 52% 30.04 in 10.0 mi North 21.9 mph 27.6 mph N/A   Mostly Cloudy
4:35 PM 54.7 °F - 36.5 °F 50% 30.04 in 10.0 mi North 19.6 mph 27.6 mph N/A   Scattered Clouds
4:55 PM 56.3 °F - 37.0 °F 48% 30.05 in 10.0 mi North 25.3 mph - N/A   Clear
5:15 PM 55.8 °F - 36.3 °F 48% 30.06 in 10.0 mi North 20.7 mph 27.6 mph N/A   Clear
5:35 PM 54.9 °F - 36.1 °F 49% 30.06 in 10.0 mi North 16.1 mph - N/A   Clear
5:55 PM 54.3 °F - 35.2 °F 49% 30.07 in 10.0 mi North 13.8 mph - N/A   Clear
6:15 PM 52.9 °F - 35.2 °F 51% 30.09 in 10.0 mi North 11.5 mph - N/A   Clear
6:35 PM 50.2 °F - 35.6 °F 57% 30.10 in 10.0 mi North 9.2 mph - N/A   Clear
6:55 PM 49.3 °F - 36.1 °F 61% 30.11 in 10.0 mi North 8.1 mph - N/A   Clear
7:15 PM 47.5 °F - 36.0 °F 64% 30.12 in 10.0 mi North 8.1 mph - N/A   Clear
7:35 PM 48.6 °F - 36.5 °F 63% 30.13 in 10.0 mi North 11.5 mph - N/A   Clear
7:55 PM 48.2 °F - 36.1 °F 63% 30.13 in 10.0 mi North 10.4 mph - N/A   Clear
8:15 PM 47.7 °F - 36.0 °F 64% 30.14 in 10.0 mi North 11.5 mph - N/A   Clear
8:35 PM 46.4 °F 41.1 °F 35.6 °F 66% 30.14 in 10.0 mi North 11.5 mph - N/A   Clear
8:55 PM 44.1 °F 39.0 °F 35.4 °F 72% 30.16 in 10.0 mi North 9.2 mph - N/A   Clear
9:15 PM 42.6 °F 37.8 °F 34.9 °F 74% 30.17 in 10.0 mi North 8.1 mph - N/A   Clear
9:35 PM 41.9 °F 37.5 °F 34.3 °F 75% 30.18 in 10.0 mi North 6.9 mph - N/A   Clear
9:55 PM 40.3 °F 36.3 °F 33.8 °F 78% 30.18 in 10.0 mi NNW 5.8 mph - N/A   Clear
10:15 PM 39.4 °F 35.2 °F 33.4 °F 79% 30.20 in 10.0 mi NNW 5.8 mph - N/A   Clear
10:35 PM 42.1 °F 36.6 °F 34.2 °F 74% 30.20 in 10.0 mi NNW 9.2 mph - N/A   Clear
10:55 PM 42.4 °F 37.5 °F 33.6 °F 71% 30.21 in 10.0 mi NNW 8.1 mph - N/A   Clear
11:15 PM 38.7 °F 34.3 °F 32.9 °F 80% 30.21 in 10.0 mi NNW 5.8 mph - N/A   Clear
11:35 PM 37.6 °F - 32.4 °F 81% 30.21 in 10.0 mi Calm Calm - N/A   Clear
11:55 PM 35.2 °F - 32.0 °F 88% 30.22 in 10.0 mi Calm Calm - N/A   Clear